Content
SEND FEEDBACK

Daily
Averages
Monthly
Summary
Switzerland

GENEVA, SWITZERLAND


Home > Europe > Switzerland
Elevation: 415 meters     Latitude: 46 15N     Longitude: 006 08E

WEATHER
 
SELECT A DAY
Number of Records: 313,363;   Date Range: 7/1/96 - 10/23/14
 
SHARE

PRINT THIS DATA

[ ← Previous Day ]
WEATHER ALMANAC - 7 DECEMBER, 2013
[ Next Day → ]
[ °F ]   °C
Weather ElementAverageHighLow
Temperature0.3 °C6 °C (1:50 pm)-4.4 °C (6:00 am)
Dewpoint-3.9 °C-2 °C (10:20 am)-6.7 °C (6:00 am)
Humidity72.6 %93 % (2:50 am)38 % (1:00 pm)
Barometer1029.5 hPa1032.8 hPa (3:00 am)1027.1 hPa (3:20 pm)
Wind Speed6 km/h20.4 km/h (11:20 am)
Wind Gust124.1 km/h (3:50 am)
Weather ElementAverage
Visibility60.7 km
Wind DirectionENE (72.9 °)

Weather ElementTotal
Precipitation---
Heating Degree Days17.6 (Base 18.3)
Averaged from 66 records on 7 December, 2013
WEATHER CONDITIONS BREAKOUT
WIND DIRECTION BREAKOUT
WEATHER BY HOUR - 7 DECEMBER, 2013
[ °F ]   °C
Local TimeTemperatureDewpointHumidityBarometerVisibilityWind DirectionWind SpeedGust SpeedPrecipitationEventsConditions
12:20 AM0 °C-3 °C80 %1029.1 hPaNorth (350°)5.6 km/hClear
12:50 AM-1 °C-4 °C80 %1029.1 hPaVariable5.6 km/hClear
1:00 AM0 °C-4.4 °C63 %1032.2 hPaNorth5.6 km/h
1:20 AM-1 °C-4 °C80 %1029.1 hPaCalmClear
1:50 AM-2 °C-4 °C86 %1029.1 hPaCalmClear
2:00 AM-2.2 °C-5 °C75 %1032.5 hPaNNW (330°)1.9 km/h
2:50 AM-3 °C-4 °C93 %1030.1 hPaCalmClear
3:00 AM-2.8 °C-5 °C79 %1032.8 hPaSW (230°)1.9 km/h
3:20 AM-3 °C-5 °C86 %1030.1 hPaCalmClear
3:50 AM-3 °C-5 °C86 %1030.1 hPaVariable1.9 km/h124.1 km/hClear
4:20 AM-4 °C-6 °C86 %1029.1 hPaSW (230°)1.9 km/hClear
5:00 AM-3.3 °C-6.1 °C75 %1032.5 hPaWSW (250°)3.7 km/h
5:20 AM-3 °C-5 °C86 %1029.1 hPaCalmClear
5:50 AM-4 °C-5 °C93 %1029.1 hPaCalmClear
6:00 AM-4.4 °C-6.7 °C81 %1032.5 hPaWSW (250°)1.9 km/h
6:20 AM-4 °C-5 °C93 %1029.1 hPaCalmClear
6:50 AM-4 °C-6 °C86 %1029.1 hPaCalmClear
7:00 AM-3.3 °C-6.1 °C73 %1032.8 hPa70.8 kmNNW (330°)3.7 km/h
7:20 AM-4 °C-6 °C86 %1029.1 hPaVariable1.9 km/hClear
7:50 AM-3 °C-5 °C86 %1029.1 hPaVariable1.9 km/hClear
8:00 AM-2.2 °C-5.6 °C68 %1032.8 hPaNorth7.4 km/h
8:20 AM-2 °C-5 °C80 %1030.1 hPaVariable3.7 km/hClear
8:50 AM0 °C-4 °C75 %1030.1 hPaNorth (360°)5.6 km/hClear
9:00 AM0 °C-5 °C59 %1032.5 hPaNorth7.4 km/h
9:20 AM1 °C-3 °C75 %1030.1 hPaNorth (10°)9.3 km/hClear
9:20 AM1.7 °C-3.9 °C55 %1032.2 hPaNorth (10°)9.3 km/h
9:50 AM2 °C-3 °C70 %1030.1 hPaNorth (10°)7.4 km/hClear
10:20 AM3 °C-2 °C70 %1030.1 hPaNNE (20°)9.3 km/hClear
10:50 AM4 °C-3 °C61 %1029.1 hPaNNE (20°)7.4 km/hClear
11:00 AM4.4 °C-3.9 °C42 %1031.2 hPaNE (40°)18.5 km/h
11:20 AM4 °C-4 °C56 %1029.1 hPaNE (40°)20.4 km/hClear
11:50 AM5 °C-3 °C57 %1029.1 hPaNE (40°)20.4 km/hClear
12:00 PM4.4 °C-4.4 °C39 %1030.8 hPaNE (40°)18.5 km/h
12:20 PM5 °C-3 °C57 %1029.1 hPaNE (40°)18.5 km/hClear
12:50 PM5 °C-3 °C57 %1029.1 hPaNE (40°)18.5 km/hClear
1:00 PM5.6 °C-3.9 °C38 %1030.5 hPa70.8 kmNE (40°)18.5 km/hScattered Clouds
1:20 PM5 °C-3 °C57 %1029.1 hPaNE (50°)14.8 km/hClear
1:50 PM6 °C-3 °C53 %1028.1 hPaNNE (30°)16.7 km/hClear
2:00 PM5.6 °C-3.3 °C40 %1030.1 hPaNE (40°)20.4 km/h
2:20 PM6 °C-3 °C53 %1028.1 hPaNE (50°)16.7 km/hClear
2:50 PM6 °C-2 °C57 %1028.1 hPaNE (40°)14.8 km/hClear
3:00 PM5.6 °C-2.8 °C43 %1029.1 hPaNNE (30°)14.8 km/h
3:20 PM6 °C-2 °C57 %1027.1 hPaNE (40°)14.8 km/hClear
3:50 PM6 °C-2 °C57 %1027.1 hPaNE (40°)9.3 km/hClear
4:20 PM5 °C-2 °C61 %1027.1 hPaNE (40°)7.4 km/hClear
4:50 PM5 °C-2 °C61 %1027.1 hPaNE (40°)5.6 km/hClear
5:00 PM1.7 °C-3.3 °C60 %1029.8 hPaNorth (350°)3.7 km/h
5:20 PM2 °C-2 °C75 %1027.1 hPaCalmClear
5:50 PM1 °C-3 °C75 %1027.1 hPaCalmClear
6:00 PM1.1 °C-3.3 °C63 %1029.8 hPaNorth (350°)1.9 km/h
6:20 PM0 °C-3 °C80 %1027.1 hPaCalmClear
6:50 PM-1 °C-3 °C86 %1028.1 hPaCalmClear
7:00 PM-0.6 °C-3.3 °C75 %1030.5 hPa40.2 kmWNW (300°)3.7 km/h
7:20 PM-1 °C-3 °C86 %1028.1 hPaCalmClear
7:50 PM-1 °C-3 °C86 %1027.1 hPaCalmClear
8:00 PM-1.7 °C-4.4 °C72 %1030.5 hPaWSW (240°)1.9 km/h
8:20 PM-2 °C-3 °C93 %1028.1 hPaCalmClear
8:50 PM-2 °C-3 °C93 %1028.1 hPaCalmClear
9:00 PM-1.7 °C-3.9 °C78 %1031.2 hPaWSW (240°)1.9 km/h
9:20 PM-2 °C-4 °C86 %1028.1 hPaCalmClear
9:50 PM-2 °C-4 °C86 %1028.1 hPaCalmClear
10:20 PM-3 °C-4 °C93 %1028.1 hPaCalmClear
10:50 PM-3 °C-4 °C93 %1028.1 hPaCalmClear
11:00 PM-2.8 °C-5.6 °C76 %1031.2 hPaWSW (250°)3.7 km/h
11:20 PM-3 °C-4 °C93 %1028.1 hPaCalmClear
11:50 PM-3 °C-4 °C93 %1028.1 hPaCalmClear
Hourly data recorded from LSGG, located 0 kilometers away from Geneva, Switzerland







STORIES FROM OUR PARTNERS